When you browse on this site, cookies collect data to enhance your experience and personalize the content and advertising you see.
Visit our Privacy Policy to learn more. By continuing to use the site, you agree to this use of cookies and data.
  • In Hungary
  • List of Countries
  • For 7 days
  • Water Temperature
  • Weather Map
  • News
  • Weather Widgets
  • user-avatar
    Login

    Hourly Weather Papendrecht

    Today, 21 August, Wednesday

    Time Temperature Precipitation Wind Pressure Humidity
    00:00 +14°C° 0 mm 2 mps 769 mmHg 76%
    01:00 +13°C° 0 mm 2 mps 769 mmHg 78%
    02:00 +13°C° 0 mm 2 mps 769 mmHg 81%
    03:00 +13°C° 0 mm 2 mps 769 mmHg 84%
    04:00 +13°C° 0 mm 2 mps 770 mmHg 84%
    05:00 +14°C° 0 mm 2 mps 770 mmHg 83%
    06:00 +14°C° 0 mm 2 mps 770 mmHg 83%
    07:00 +16°C° 0 mm 2 mps 770 mmHg 75%
    08:00 +18°C° 0 mm 2 mps 770 mmHg 67%
    09:00 +20°C° 0 mm 2 mps 770 mmHg 59%
    10:00 +20°C° 0 mm 2 mps 770 mmHg 55%
    11:00 +21°C° 0 mm 2 mps 770 mmHg 51%
    12:00 +23°C° 0 mm 2 mps 770 mmHg 47%
    13:00 +23°C° 0 mm 2 mps 770 mmHg 46%
    14:00 +23°C° 0 mm 2 mps 770 mmHg 46%
    15:00 +23°C° 0 mm 1 mps 769 mmHg 46%
    16:00 +23°C° 0 mm 1 mps 769 mmHg 51%
    17:00 +22°C° 0 mm 1 mps 769 mmHg 55%
    18:00 +21°C° 0 mm 1 mps 769 mmHg 59%
    19:00 +20°C° 0 mm 1 mps 769 mmHg 62%
    20:00 +18°C° 0 mm 1 mps 769 mmHg 64%
    21:00 +16°C° 0 mm 1 mps 769 mmHg 67%
    22:00 +16°C° 0 mm 1 mps 769 mmHg 67%
    23:00 +15°C° 0 mm 2 mps 769 mmHg 67%

    Tomorrow, 22 August, Thursday

    Time Temperature Precipitation Wind Pressure Humidity
    00:00 +15°C° 0 mm 2 mps 768 mmHg 68%
    01:00 +14°C° 0 mm 2 mps 768 mmHg 68%
    02:00 +14°C° 0 mm 2 mps 768 mmHg 69%
    03:00 +14°C° 0 mm 2 mps 768 mmHg 69%
    04:00 +14°C° 0 mm 2 mps 768 mmHg 70%
    05:00 +14°C° 0 mm 2 mps 768 mmHg 71%
    06:00 +15°C° 0 mm 2 mps 768 mmHg 72%
    07:00 +17°C° 0 mm 2 mps 768 mmHg 68%
    08:00 +19°C° 0 mm 2 mps 768 mmHg 64%
    09:00 +21°C° 0 mm 3 mps 768 mmHg 60%
    10:00 +22°C° 0 mm 3 mps 768 mmHg 57%
    11:00 +22°C° 0 mm 3 mps 768 mmHg 54%
    12:00 +23°C° 0 mm 4 mps 768 mmHg 51%
    13:00 +24°C° 0 mm 3 mps 768 mmHg 50%
    14:00 +24°C° 0 mm 3 mps 768 mmHg 50%
    15:00 +24°C° 0 mm 3 mps 768 mmHg 50%
    16:00 +22°C° 0 mm 3 mps 768 mmHg 52%
    17:00 +20°C° 0 mm 2 mps 768 mmHg 55%
    18:00 +19°C° 0 mm 2 mps 768 mmHg 57%
    19:00 +19°C° 0 mm 1 mps 768 mmHg 58%
    20:00 +18°C° 0 mm 1 mps 768 mmHg 58%
    21:00 +16°C° 0 mm 1 mps 769 mmHg 58%
    22:00 +15°C° 0 mm 1 mps 769 mmHg 59%
    23:00 +15°C° 0 mm 1 mps 768 mmHg 60%

    Day after tomorrow, 23 August, Friday

    Time Temperature Precipitation Wind Pressure Humidity
    00:00 +15°C° 0 mm 1 mps 768 mmHg 61%
    01:00 +14°C° 0 mm 1 mps 768 mmHg 62%
    02:00 +14°C° 0 mm 1 mps 768 mmHg 64%
    03:00 +14°C° 0 mm 1 mps 768 mmHg 65%
    04:00 +14°C° 0 mm 1 mps 768 mmHg 65%
    05:00 +15°C° 0 mm 1 mps 768 mmHg 65%
    06:00 +15°C° 0 mm 1 mps 768 mmHg 66%
    07:00 +18°C° 0 mm 1 mps 768 mmHg 61%
    08:00 +20°C° 0 mm 1 mps 768 mmHg 56%
    09:00 +22°C° 0 mm 1 mps 768 mmHg 51%
    10:00 +23°C° 0 mm 1 mps 768 mmHg 49%
    11:00 +24°C° 0 mm 1 mps 768 mmHg 47%
    12:00 +25°C° 0 mm 1 mps 767 mmHg 44%
    13:00 +26°C° 0 mm 1 mps 767 mmHg 45%
    14:00 +26°C° 0 mm 1 mps 767 mmHg 45%
    15:00 +26°C° 0 mm 1 mps 767 mmHg 46%
    16:00 +25°C° 0 mm 2 mps 767 mmHg 51%
    17:00 +24°C° 0 mm 2 mps 767 mmHg 56%
    18:00 +21°C° 0 mm 2 mps 767 mmHg 61%
    19:00 +20°C° 0 mm 2 mps 767 mmHg 62%
    20:00 +19°C° 0 mm 2 mps 767 mmHg 64%
    21:00 +18°C° 0 mm 3 mps 767 mmHg 65%
    22:00 +18°C° 0 mm 3 mps 767 mmHg 66%
    23:00 +17°C° 0 mm 3 mps 766 mmHg 67%

    24 August, Saturday

    Time Temperature Precipitation Wind Pressure Humidity
    00:00 +17°C° 0 mm 3 mps 766 mmHg 69%
    01:00 +16°C° 0 mm 3 mps 766 mmHg 72%
    02:00 +16°C° 0 mm 3 mps 766 mmHg 76%
    03:00 +16°C° 0 mm 3 mps 765 mmHg 79%
    04:00 +16°C° 0 mm 3 mps 765 mmHg 80%
    05:00 +16°C° 0 mm 2 mps 765 mmHg 81%
    06:00 +16°C° 0 mm 2 mps 765 mmHg 82%
    07:00 +19°C° 0 mm 3 mps 765 mmHg 75%
    08:00 +21°C° 0 mm 3 mps 765 mmHg 68%
    09:00 +24°C° 0 mm 3 mps 765 mmHg 60%
    10:00 +25°C° 0 mm 3 mps 765 mmHg 56%
    11:00 +27°C° 0 mm 3 mps 765 mmHg 51%
    12:00 +28°C° 0 mm 3 mps 764 mmHg 47%
    13:00 +28°C° 0 mm 3 mps 764 mmHg 46%
    14:00 +29°C° 0 mm 3 mps 764 mmHg 46%
    15:00 +29°C° 0 mm 3 mps 763 mmHg 45%
    16:00 +27°C° 0 mm 3 mps 763 mmHg 50%
    17:00 +26°C° 0 mm 2 mps 763 mmHg 55%
    18:00 +25°C° 0 mm 2 mps 763 mmHg 60%
    19:00 +24°C° 0 mm 2 mps 763 mmHg 63%
    20:00 +22°C° 0 mm 3 mps 763 mmHg 65%
    21:00 +20°C° 0 mm 3 mps 763 mmHg 68%
    22:00 +20°C° 0 mm 3 mps 763 mmHg 71%
    23:00 +19°C° 0 mm 3 mps 763 mmHg 73%

    25 August, Sunday

    Time Temperature Precipitation Wind Pressure Humidity
    00:00 +19°C° 0 mm 2 mps 763 mmHg 76%
    01:00 +18°C° 0 mm 2 mps 762 mmHg 78%
    02:00 +18°C° 0 mm 2 mps 762 mmHg 79%
    03:00 +17°C° 0 mm 2 mps 762 mmHg 81%
    04:00 +18°C° 0 mm 2 mps 762 mmHg 80%
    05:00 +18°C° 0 mm 2 mps 762 mmHg 78%
    06:00 +18°C° 0 mm 2 mps 762 mmHg 77%
    07:00 +20°C° 0 mm 2 mps 762 mmHg 69%
    08:00 +23°C° 0 mm 2 mps 762 mmHg 62%
    09:00 +25°C° 0 mm 2 mps 762 mmHg 55%
    10:00 +27°C° 0 mm 2 mps 762 mmHg 52%
    11:00 +28°C° 0 mm 2 mps 762 mmHg 48%
    12:00 +29°C° 0 mm 2 mps 762 mmHg 45%
    13:00 +30°C° 0 mm 2 mps 762 mmHg 44%
    14:00 +30°C° 0 mm 2 mps 762 mmHg 42%
    15:00 +31°C° 0 mm 1 mps 761 mmHg 41%
    16:00 +29°C° 0 mm 2 mps 761 mmHg 46%
    17:00 +28°C° 0 mm 2 mps 761 mmHg 52%
    18:00 +26°C° 0 mm 2 mps 761 mmHg 57%
    19:00 +25°C° 0 mm 2 mps 761 mmHg 58%
    20:00 +25°C° 0 mm 2 mps 762 mmHg 58%
    21:00 +24°C° 0 mm 3 mps 762 mmHg 59%
    22:00 +22°C° 0 mm 3 mps 762 mmHg 60%
    23:00 +22°C° 0 mm 3 mps 762 mmHg 60%

    26 August, Monday

    Time Temperature Precipitation Wind Pressure Humidity
    00:00 +21°C° 0 mm 3 mps 761 mmHg 61%
    01:00 +21°C° 0 mm 3 mps 761 mmHg 63%
    02:00 +20°C° 0 mm 3 mps 761 mmHg 65%
    03:00 +20°C° 0 mm 3 mps 761 mmHg 67%
    04:00 +19°C° 0 mm 3 mps 762 mmHg 71%
    05:00 +19°C° 0 mm 3 mps 762 mmHg 74%
    06:00 +19°C° 0 mm 3 mps 762 mmHg 78%
    07:00 +20°C° 0 mm 3 mps 762 mmHg 74%
    08:00 +22°C° 0 mm 4 mps 763 mmHg 71%
    09:00 +25°C° 0 mm 4 mps 763 mmHg 67%
    10:00 +25°C° 0 mm 4 mps 763 mmHg 64%
    11:00 +26°C° 0 mm 4 mps 763 mmHg 62%
    12:00 +27°C° 0 mm 4 mps 763 mmHg 59%
    13:00 +26°C° 0 mm 4 mps 763 mmHg 59%
    14:00 +26°C° 0 mm 4 mps 764 mmHg 59%
    15:00 +26°C° 0 mm 4 mps 764 mmHg 59%
    16:00 +25°C° 0 mm 3 mps 764 mmHg 63%
    17:00 +22°C° 0 mm 3 mps 764 mmHg 68%
    18:00 +21°C° 0 mm 2 mps 764 mmHg 73%
    19:00 +20°C° 0 mm 2 mps 764 mmHg 75%
    20:00 +19°C° 0 mm 2 mps 765 mmHg 77%
    21:00 +18°C° 0 mm 2 mps 765 mmHg 79%
    22:00 +19°C° 0 mm 1 mps 765 mmHg 80%
    23:00 +18°C° 0 mm 1 mps 765 mmHg 81%
    Show more